This demonstration page uses our WeatherBlox Daily Observations layout. Learn more.

Left ArrowRight Arrow

39.51506, -84.39828

Hourly Observations for March 20, 2020

Temp ( °F °C ) Dew Point ( °F °C ) Humidity (%) Winds ( mph kmh ) Pressure ( in mb ) Visibility ( mi km ) Precip ( " mm )
12:15 am 00:15 Cloudy with Thunderstorms 65 18.4 64 17.7 96 96 SW 20 31 29.95 1014 4 6.43736 0 0
12:35 am 00:35 Cloudy with Light Rain 65 18.3 64 17.7 96 96 SW 13 20 29.95 1014 7 11.26538 0 0
12:55 am 00:55 Cloudy with Nearby Thunderstorms 65 18.1 64 17.5 96 96 SW 9 15 29.95 1014 7 11.26538 0 0
1:15 am 01:15 Cloudy 64 17.6 63 17.3 98 98 SW 6 9 29.95 1014 10 16.0934 0 0
1:35 am 01:35 Cloudy 64 18 64 17.6 98 98 SSW 9 15 29.94 1014 10 16.0934 0 0
1:55 am 01:55 Cloudy 66 18.7 64 17.7 94 94 SSW 16 26 29.94 1014 10 16.0934 0 0
2:15 am 02:15 Cloudy with Rain 65 18.6 64 17.9 96 96 SSW 16 26 29.94 1014 4 6.43736 0 0
2:35 am 02:35 Cloudy with Thunderstorms 65 18.4 64 17.9 97 97 SSW 9 15 29.91 1013 5 8.0467 0 0
2:55 am 02:55 Cloudy 65 18.4 64 17.8 96 96 WSW 6 9 29.92 1013 7 11.26538 0 0
3:15 am 03:15 Cloudy with Light Rain 64 17.8 64 17.5 98 98 S 3 6 29.91 1013 7 11.26538 0 0
3:35 am 03:35 Cloudy with Nearby Thunderstorms 64 18 64 17.7 98 98 S 10 17 29.89 1012 10 16.0934 0 0
3:55 am 03:55 Cloudy with Thunderstorms 65 18.2 62 16.5 90 90 W 14 22 29.91 1013 10 16.0934 0 0
4:15 am 04:15 Cloudy 63 17.2 60 15.5 90 90 SW 8 13 29.87 1012 10 16.0934 0 0
4:35 am 04:35 Cloudy with Rain 64 17.7 63 17.1 96 96 WSW 16 26 29.87 1012 7 11.26538 0 0
4:55 am 04:55 Cloudy with Heavy Thunderstorms 66 18.8 63 17.1 90 90 WSW 24 39 29.89 1012 4 6.43736 0 0
5:15 am 05:15 Cloudy with Heavy Thunderstorms 63 17 62 16.4 96 96 SSW 21 33 29.88 1012 3 4.82802 0 0
5:35 am 05:35 Cloudy with Nearby Thunderstorms 62 16.9 62 16.4 97 97 SW 14 22 29.86 1011 7 11.26538 0 0
5:55 am 05:55 Mostly Cloudy with Light Rain 63 17.3 62 16.8 97 97 SSW 14 22 29.85 1011 10 16.0934 0 0
6:15 am 06:15 Cloudy with Light Rain 65 18.2 62 16.6 90 90 SW 17 28 29.86 1011 10 16.0934 0 0
6:35 am 06:35 Cloudy 64 17.6 60 15.8 89 89 SSW 18 30 29.86 1011 10 16.0934 0 0
6:55 am 06:55 Cloudy with Light Rain 63 17.2 61 16 93 93 SW 12 19 29.86 1011 10 16.0934 0 0
7:15 am 07:15 Cloudy with Rain 63 17.1 61 16.3 95 95 SSW 14 22 29.86 1011 7 11.26538 0 0
7:35 am 07:35 Cloudy with Light Rain 63 17.3 62 16.8 97 97 SW 17 28 29.86 1011 7 11.26538 0 0
7:55 am 07:55 Mostly Cloudy 64 17.8 63 17 95 95 SW 16 26 29.87 1012 10 16.0934 0 0
8:15 am 08:15 Mostly Cloudy 64 17.9 62 16.8 93 93 SW 15 24 29.88 1012 10 16.0934 0 0
8:35 am 08:35 Partly Cloudy 64 18 62 16.8 93 93 SSW 14 22 29.89 1012 10 16.0934 0 0
8:55 am 08:55 Sunny 64 17.9 62 16.6 92 92 SW 13 20 29.9 1013 10 16.0934 0 0
9:15 am 09:15 Sunny 65 18.2 62 16.4 89 89 SW 13 20 29.92 1013 10 16.0934 0 0
9:35 am 09:35 Sunny 65 18.4 61 16.3 88 88 SW 14 22 29.92 1013 10 16.0934 0 0
9:55 am 09:55 Sunny 67 19.2 62 16.7 86 86 SW 14 22 29.94 1014 10 16.0934 0 0
10:15 am 10:15 Partly Cloudy 67 19.2 62 16.7 86 86 SW 14 22 29.95 1014 10 16.0934 0 0
10:35 am 10:35 Partly Cloudy 67 19.7 62 16.6 82 82 WSW 14 22 29.95 1014 10 16.0934 0 0
10:55 am 10:55 Partly Cloudy 68 20.2 62 16.4 79 79 WSW 14 22 29.96 1015 10 16.0934 0 0
11:15 am 11:15 Partly Cloudy 69 20.5 61 16.2 76 76 WSW 14 22 29.96 1015 10 16.0934 0 0
11:35 am 11:35 Partly Cloudy 69 20.7 61 16 75 75 WSW 15 24 29.95 1014 10 16.0934 0 0
11:55 am 11:55 Partly Cloudy 71 21.7 61 16.1 71 71 WSW 17 28 29.95 1014 10 16.0934 0 0
12:15 pm 12:15 Mostly Cloudy 71 21.7 60 15.6 68 68 WSW 17 28 29.96 1015 10 16.0934 0 0
12:35 pm 12:35 Partly Cloudy 72 22.1 58 14.7 63 63 WSW 23 37 29.96 1015 10 16.0934 0 0
12:55 pm 12:55 Mostly Cloudy 73 22.5 58 14.7 61 61 WSW 23 37 29.96 1015 10 16.0934 0 0
1:15 pm 13:15 Cloudy 69 20.6 56 13.1 62 62 W 20 31 29.98 1015 10 16.0934 0 0
1:35 pm 13:35 Cloudy with Light Rain 62 16.4 56 13.4 83 83 NNW 21 33 30.01 1016 10 16.0934 0 0
1:55 pm 13:55 Partly Cloudy 61 16.2 55 12.5 79 79 WNW 20 31 30.02 1017 10 16.0934 0 0
2:15 pm 14:15 Sunny 62 16.7 54 12.4 76 76 NW 18 30 30.02 1017 10 16.0934 0 0
2:35 pm 14:35 Sunny 63 17 53 11.9 72 72 WNW 14 22 30.04 1017 10 16.0934 0 0
2:55 pm 14:55 Partly Cloudy 62 16.4 52 11.1 71 71 NW 14 22 30.04 1017 10 16.0934 0 0
3:15 pm 15:15 Mostly Cloudy 61 16 52 11.1 73 73 NW 12 19 30.05 1018 10 16.0934 0 0
3:35 pm 15:35 Mostly Cloudy 60 15.4 50 10.1 71 71 NW 14 22 30.06 1018 10 16.0934 0 0
3:55 pm 15:55 Mostly Cloudy 58 14.7 49 9.5 71 71 NW 10 17 30.08 1019 10 16.0934 0 0
4:15 pm 16:15 Cloudy 57 13.8 48 8.7 72 72 NW 13 20 30.1 1019 10 16.0934 0 0
4:35 pm 16:35 Cloudy 55 12.9 46 7.9 72 72 NW 12 19 30.11 1020 10 16.0934 0 0
4:55 pm 16:55 Cloudy 52 11.1 45 7.2 77 77 NW 14 22 30.14 1021 10 16.0934 0 0
5:15 pm 17:15 Cloudy 50 9.8 42 5.7 76 76 NNW 17 28 30.16 1021 10 16.0934 0 0
5:35 pm 17:35 Cloudy 49 9.2 41 5 75 75 NNW 17 28 30.17 1022 10 16.0934 0 0
5:55 pm 17:55 Cloudy 47 8.6 40 4.5 76 76 NW 12 19 30.19 1022 10 16.0934 0 0
6:15 pm 18:15 Cloudy 47 8.4 39 4.1 75 75 NNW 17 28 30.2 1023 10 16.0934 0 0
6:35 pm 18:35 Cloudy 46 7.8 38 3.6 75 75 NNW 14 22 30.22 1024 10 16.0934 0 0
6:55 pm 18:55 Cloudy 45 7.3 37 3 74 74 NNW 14 22 30.24 1024 10 16.0934 0 0
7:15 pm 19:15 Cloudy 44 6.9 37 2.5 74 74 NNW 16 26 30.25 1024 10 16.0934 0 0
7:35 pm 19:35 Cloudy 44 6.6 36 2.4 75 75 NNW 16 26 30.26 1025 10 16.0934 0 0
7:55 pm 19:55 Cloudy 44 6.4 36 2 74 74 N 13 20 30.28 1025 10 16.0934 0 0
8:15 pm 20:15 Cloudy 44 6.4 35 1.6 72 72 N 16 26 30.28 1025 10 16.0934 0 0
8:35 pm 20:35 Cloudy 43 6.3 35 1.7 73 73 NNW 10 17 30.28 1025 10 16.0934 0 0
8:55 pm 20:55 Cloudy 43 6.1 35 1.6 73 73 NNW 14 22 30.29 1026 10 16.0934 0 0
9:15 pm 21:15 Cloudy 42 5.7 34 1 72 72 NNW 14 22 30.32 1027 10 16.0934 0 0
9:35 pm 21:35 Cloudy 42 5.6 33 0.8 72 72 N 14 22 30.33 1027 10 16.0934 0 0
9:55 pm 21:55 Cloudy 42 5.5 34 0.9 73 73 NNW 13 20 30.34 1027 10 16.0934 0 0
10:15 pm 22:15 Cloudy 42 5.3 33 0.7 73 73 NNW 12 19 30.35 1028 10 16.0934 0 0
10:35 pm 22:35 Cloudy 41 5 33 0.7 74 74 NNW 13 20 30.37 1029 10 16.0934 0 0
10:55 pm 22:55 Cloudy 40 4.5 32 0 73 73 N 15 24 30.37 1029 10 16.0934 0 0
11:15 pm 23:15 Cloudy 39 3.9 31 -0.7 72 72 N 14 22 30.37 1029 10 16.0934 0 0
11:35 pm 23:35 Mostly Cloudy 38 3.4 31 -0.8 74 74 N 17 28 30.38 1029 10 16.0934 0 0
11:55 pm 23:55 Mostly Cloudy 37 2.9 30 -1.2 75 75 N 12 19 30.4 1029 10 16.0934 0 0

Powered by AerisWeather